Bangor, ME

9:33 PM EDT on October 21, 2019 (GMT -0400)
Bangor International

Weather History for KBGR - August, 2019

Change the Weather History Date:

Sunday, August 25, 2019

  Actual Average Record
Temperature  
Mean Temperature 62 °F 66 °F  
Max Temperature 75 °F 77 °F 95 °F (1948)
Min Temperature 49 °F 54 °F 29 °F (1942)
Degree Days  
Heating Degree Days 3 2  
Month to date heating degree days 8 29  
Since 1 June heating degree days 98 159  
Since 1 July heating degree days 8 52  
Cooling Degree Days 0 3  
Month to date cooling degree days 92 89  
Year to date cooling degree days 318 279  
Since 1 June cooling degree days 318 273  
Growing Degree Days 12 (Base 50)    
Moisture  
Dew Point 48 °F    
Average Humidity 64    
Maximum Humidity 100    
Minimum Humidity 27    
Precipitation  
Precipitation 0.00 in 0.09 in 0.97 in (1958)
Month to date precipitation 5.90 2.45  
Year to date precipitation 34.57 25.72  
Snow  
Snow 0.00 in 0.00 in 0.00 in (2002)
Month to date snowfall 0.0 0.0  
Since 1 June snowfall 0.0 0.0  
Since 1 July snowfall 0.0 0.0  
Snow Depth 0.00 in    
Sea Level Pressure  
Sea Level Pressure 30.36 in    
Wind  
Wind Speed 3 mph (NE)    
Max Wind Speed 13 mph    
Max Gust Speed 19 mph    
Visibility 10 miles    
Events Fog    
T = Trace of Precipitation, MM = Missing Value Source: NWS Daily Summary

Daily Weather History Graph

Daily Weather History Graph

Search for Another Location

Airport or City:

Astronomy

Aug. 25, 2019 Rise Set
Actual Time 5:48 AM EDT 7:25 PM EDT
Civil Twilight 5:18 AM EDT 7:55 PM EDT
Nautical Twilight 4:40 AM EDT 8:33 PM EDT
Astronomical Twilight 4:00 AM EDT 9:13 PM EDT
Moon 12:13 AM EDT (8/25) 3:51 PM EDT (8/25)
Length of Visible Light 14h 37m
Length of Day
13h 36m
Waning Crescent, 29% of the Moon is Illuminated
Aug 25
Waning Crescent
Aug 30
New
Sep 5
First Quarter
Sep 14
Full
Sep 21
Last Quarter

Hourly Weather History & Observations

Time (EDT) Temp. Dew Point Humidity Pressure Visibility Wind Dir Wind Speed Gust Speed Precip Events Conditions
12:53 AM 52.0 °F 51.1 °F 97% 30.35 in 10.0 mi Calm Calm - N/A   Clear
1:53 AM 53.1 °F 52.0 °F 96% 30.35 in 10.0 mi Calm Calm - N/A   Clear
2:53 AM 53.1 °F 51.1 °F 93% 30.35 in 10.0 mi NW 3.5 mph - N/A   Partly Cloudy
3:53 AM 51.1 °F 48.9 °F 92% 30.36 in 10.0 mi NNE 3.5 mph - N/A   Clear
4:53 AM 50.0 °F 48.0 °F 93% 30.38 in 10.0 mi North 4.6 mph - N/A   Clear
5:53 AM 51.1 °F 48.9 °F 92% 30.38 in 10.0 mi Calm Calm - N/A Fog Patches of Fog
6:53 AM 52.0 °F 50.0 °F 93% 30.40 in 10.0 mi Calm Calm - N/A Fog Patches of Fog
7:53 AM 57.0 °F 52.0 °F 83% 30.42 in 10.0 mi Calm Calm - N/A   Clear
8:53 AM 60.1 °F 51.1 °F 72% 30.42 in 10.0 mi ENE 8.1 mph - N/A   Clear
9:53 AM 63.0 °F 50.0 °F 63% 30.42 in 10.0 mi NNE 4.6 mph - N/A   Clear
10:53 AM 66.0 °F 46.9 °F 50% 30.41 in 10.0 mi ENE 5.8 mph - N/A   Partly Cloudy
11:53 AM 69.1 °F 46.0 °F 44% 30.40 in 10.0 mi North 6.9 mph - N/A   Clear
12:53 PM 72.0 °F 46.9 °F 41% 30.38 in 10.0 mi North 6.9 mph - N/A   Clear
1:53 PM 73.0 °F 48.0 °F 41% 30.36 in 10.0 mi ENE 8.1 mph - N/A   Clear
2:53 PM 73.0 °F 46.0 °F 38% 30.35 in 10.0 mi East 8.1 mph - N/A   Clear
3:53 PM 73.9 °F 37.9 °F 27% 30.32 in 10.0 mi NE 9.2 mph - N/A   Partly Cloudy
4:53 PM 73.9 °F 41.0 °F 30% 30.32 in 10.0 mi ENE 8.1 mph - N/A   Partly Cloudy
5:53 PM 73.0 °F 43.0 °F 34% 30.31 in 10.0 mi ENE 6.9 mph - N/A   Partly Cloudy
6:53 PM 70.0 °F 45.0 °F 41% 30.30 in 10.0 mi ENE 4.6 mph - N/A   Partly Cloudy
7:53 PM 59.0 °F 50.0 °F 72% 30.31 in 10.0 mi Calm Calm - N/A   Clear
8:53 PM 61.0 °F 52.0 °F 72% 30.32 in 10.0 mi South 6.9 mph - N/A   Clear
9:53 PM 57.9 °F 53.1 °F 84% 30.33 in 10.0 mi Calm Calm - N/A   Clear
10:53 PM 53.1 °F 52.0 °F 96% 30.33 in 10.0 mi Calm Calm - N/A   Clear
11:53 PM 55.0 °F 52.0 °F 89% 30.32 in 10.0 mi Calm Calm - N/A   Clear